Plymouth, NH

7:09 PM EST on February 18, 2018 (GMT -0500)
Plymouth

Weather History for K1P1 - May, 2014

Change the Weather History Date:

Friday, May 30, 2014

  Actual Average (KLCI) Record (KLCI)
Temperature  
Mean Temperature 57 °F -  
Max Temperature 71 °F 72 °F 95 °F (1987)
Min Temperature 43 °F 49 °F 39 °F (1977)
Degree Days  
Heating Degree Days 8    
Growing Degree Days 7 (Base 50)    
Moisture  
Dew Point 47 °F    
Average Humidity 78    
Maximum Humidity 97    
Minimum Humidity 34    
Precipitation  
Precipitation 0.01 in - - ()
Sea Level Pressure  
Sea Level Pressure 30.06 in    
Wind  
Wind Speed 1 mph (WNW)    
Max Wind Speed 13 mph    
Max Gust Speed 20 mph    
Visibility 10 miles    
Events Rain , Thunderstorm    
Averages and records for this station are not official NWS values.
T = Trace of Precipitation, MM = Missing Value Source: NWS Daily Summary

Daily Weather History Graph

Daily Weather History Graph

Search for Another Location

Airport or City:

Trip Planner

Search our weather history database for the weather conditions in past years. The results will help you decide how hot, cold, wet, or windy it might be!

Date:

Astronomy

May. 30, 2014 Rise Set
Actual Time 5:09 AM EDT 8:20 PM EDT
Civil Twilight 4:34 AM EDT 8:55 PM EDT
Nautical Twilight 3:49 AM EDT 9:40 PM EDT
Astronomical Twilight 2:54 AM EDT 10:35 PM EDT
Moon 6:52 AM EDT (5/30) 9:52 PM EDT (5/30)
Length of Visible Light 16h 21m
Length of Day
15h 11m
Waxing Crescent, 4% of the Moon is Illuminated
May 30
Waxing Crescent
Jun 5
First Quarter
Jun 13
Full
Jun 19
Last Quarter
Jun 27
New

Hourly Weather History & Observations

Time (EDT) Temp. Dew Point Humidity Pressure Visibility Wind Dir Wind Speed Gust Speed Precip Events Conditions
12:15 AM 47.5 °F 45.5 °F 93% 30.12 in 10.0 mi Calm Calm - N/A   Clear
12:35 AM 46.8 °F 45.1 °F 94% 30.12 in 10.0 mi Calm Calm - N/A   Clear
12:55 AM 46.4 °F 44.8 °F 94% 30.12 in 10.0 mi Calm Calm - N/A   Scattered Clouds
1:15 AM 45.9 °F 44.6 °F 95% 30.12 in 10.0 mi Calm Calm - N/A   Mostly Cloudy
1:35 AM 46.0 °F 44.8 °F 95% 30.11 in 10.0 mi Calm Calm - N/A   Scattered Clouds
1:55 AM 44.8 °F 43.7 °F 96% 30.11 in 10.0 mi Calm Calm - N/A   Scattered Clouds
2:15 AM 45.0 °F 43.9 °F 96% 30.10 in 10.0 mi Calm Calm - N/A   Clear
2:35 AM 44.6 °F 43.7 °F 97% 30.09 in 7.0 mi Calm Calm - N/A   Clear
2:55 AM 44.6 °F 43.7 °F 97% 30.09 in 10.0 mi Calm Calm - N/A   Clear
3:15 AM 44.6 °F 43.7 °F 97% 30.09 in 10.0 mi Calm Calm - N/A   Clear
3:35 AM 44.6 °F 43.7 °F 97% 30.09 in 10.0 mi Calm Calm - N/A   Clear
3:55 AM 44.6 °F 43.7 °F 97% 30.09 in 10.0 mi Calm Calm - N/A   Clear
4:15 AM 44.6 °F 43.7 °F 97% 30.09 in 10.0 mi Calm Calm - N/A   Scattered Clouds
4:35 AM 43.9 °F 43.0 °F 97% 30.08 in 7.0 mi Calm Calm - N/A   Overcast
4:55 AM 43.9 °F 43.2 °F 97% 30.08 in 10.0 mi Calm Calm - N/A   Overcast
5:15 AM 43.9 °F 43.2 °F 97% 30.08 in 10.0 mi Calm Calm - N/A   Overcast
5:35 AM 43.9 °F 43.2 °F 97% 30.08 in 10.0 mi Calm Calm - N/A   Overcast
5:55 AM 44.6 °F 43.7 °F 97% 30.08 in 10.0 mi Calm Calm - N/A   Overcast
6:15 AM 45.5 °F 44.6 °F 97% 30.08 in 10.0 mi Calm Calm - N/A   Overcast
6:35 AM 46.0 °F 45.0 °F 96% 30.08 in 10.0 mi Calm Calm - N/A   Overcast
6:55 AM 46.9 °F 45.5 °F 95% 30.07 in 10.0 mi Calm Calm - N/A   Overcast
7:15 AM 47.7 °F 45.3 °F 92% 30.07 in 10.0 mi Calm Calm - N/A   Overcast
7:35 AM 49.1 °F 45.5 °F 87% 30.07 in 10.0 mi Calm Calm - N/A   Overcast
7:55 AM 50.9 °F 45.9 °F 83% 30.07 in 10.0 mi Calm Calm - N/A   Overcast
8:15 AM 53.4 °F 46.6 °F 78% 30.07 in 10.0 mi Calm Calm - N/A   Mostly Cloudy
8:35 AM 54.7 °F 46.2 °F 73% 30.07 in 10.0 mi Calm Calm - N/A   Overcast
8:55 AM 56.3 °F 45.9 °F 68% 30.07 in 10.0 mi Calm Calm - N/A   Mostly Cloudy
9:15 AM 58.6 °F 46.9 °F 65% 30.06 in 10.0 mi WNW 5.8 mph - N/A   Scattered Clouds
9:35 AM 63.0 °F 45.3 °F 53% 30.05 in 10.0 mi WNW 9.2 mph - N/A   Scattered Clouds
9:55 AM 64.8 °F 45.9 °F 50% 30.04 in 10.0 mi WNW 8.1 mph - N/A   Mostly Cloudy
10:15 AM 65.8 °F 46.6 °F 50% 30.04 in 10.0 mi West 6.9 mph - N/A   Mostly Cloudy
10:35 AM 67.1 °F 45.5 °F 46% 30.03 in 10.0 mi West 4.6 mph - N/A   Scattered Clouds
10:55 AM 68.7 °F 45.7 °F 44% 30.03 in 10.0 mi Calm Calm - N/A   Scattered Clouds
11:15 AM 68.4 °F 43.7 °F 41% 30.02 in 10.0 mi West 5.8 mph - N/A   Mostly Cloudy
11:35 AM 68.9 °F 42.6 °F 39% 30.01 in 10.0 mi West 8.1 mph - N/A   Overcast
11:55 AM 70.7 °F 41.9 °F 35% 30.00 in 10.0 mi NW 8.1 mph - N/A   Mostly Cloudy
12:15 PM 71.6 °F 42.1 °F 34% 30.00 in 10.0 mi West 5.8 mph - N/A   Mostly Cloudy
12:35 PM 68.2 °F 44.4 °F 42% 30.00 in 10.0 mi West 10.4 mph 17.3 mph N/A   Overcast
12:55 PM 68.2 °F 45.3 °F 44% 29.99 in 10.0 mi WNW 8.1 mph - N/A   Overcast
1:15 PM 68.9 °F 46.2 °F 44% 29.99 in 10.0 mi West 8.1 mph - N/A   Overcast
1:35 PM 69.4 °F 45.5 °F 42% 29.99 in 10.0 mi West 8.1 mph - N/A   Overcast
2:15 PM 63.9 °F 45.9 °F 52% 30.01 in 7.0 mi West 12.7 mph 19.6 mph N/A Rain Rain
2:35 PM 59.4 °F 50.7 °F 73% 30.01 in 10.0 mi WNW 4.6 mph - 0.01 in Rain Light Rain
2:55 PM 61.5 °F 50.4 °F 67% 30.01 in 10.0 mi Calm Calm - 0.01 in   Mostly Cloudy
3:15 PM 62.8 °F 50.0 °F 63% 30.02 in 10.0 mi Calm Calm - N/A   Overcast
3:35 PM 62.8 °F 51.6 °F 67% 30.02 in 10.0 mi Calm Calm - N/A   Mostly Cloudy
3:55 PM 64.6 °F 50.0 °F 59% 30.02 in 10.0 mi NNW 5.8 mph - N/A   Overcast
4:15 PM 63.5 °F 46.9 °F 55% 30.01 in 10.0 mi NE 5.8 mph - N/A   Overcast
5:15 PM 60.1 °F 48.4 °F 65% 30.03 in 10.0 mi East 4.6 mph - N/A   Overcast
5:35 PM 59.5 °F 48.9 °F 68% 30.03 in 10.0 mi Calm Calm - N/A   Overcast
6:35 PM 59.0 °F 52.9 °F 80% 30.04 in 10.0 mi Calm Calm - N/A Rain Light Rain
6:55 PM 59.7 °F 52.2 °F 76% 30.04 in 10.0 mi Calm Calm - N/A   Overcast
7:15 PM 59.9 °F 52.0 °F 75% 30.05 in 10.0 mi East 3.5 mph - N/A   Overcast
7:35 PM 57.9 °F 52.0 °F 81% 30.06 in 10.0 mi Calm Calm - N/A   Overcast
7:55 PM 57.0 °F 52.0 °F 83% 30.06 in 10.0 mi Calm Calm - N/A   Mostly Cloudy
8:15 PM 55.4 °F 52.7 °F 91% 30.06 in 10.0 mi Calm Calm - N/A   Scattered Clouds
8:35 PM 54.5 °F 52.2 °F 92% 30.05 in 10.0 mi Calm Calm - N/A   Mostly Cloudy
8:55 PM 53.6 °F 52.0 °F 94% 30.06 in 10.0 mi Calm Calm - N/A   Scattered Clouds
9:15 PM 52.9 °F 51.4 °F 95% 30.07 in 10.0 mi Calm Calm - N/A   Scattered Clouds
9:35 PM 52.7 °F 51.3 °F 95% 30.07 in 10.0 mi Calm Calm - N/A   Mostly Cloudy
10:15 PM 51.3 °F 50.0 °F 95% 30.08 in 10.0 mi Calm Calm - N/A Thunderstorm Mostly Cloudy
10:35 PM 52.0 °F 50.9 °F 96% 30.07 in 10.0 mi West 3.5 mph - N/A   Mostly Cloudy
10:55 PM 52.3 °F 51.1 °F 95% 30.06 in 10.0 mi NW 4.6 mph - N/A   Mostly Cloudy
11:15 PM 52.3 °F 50.9 °F 95% 30.07 in 10.0 mi Calm Calm - N/A   Scattered Clouds
11:35 PM 50.7 °F 48.9 °F 94% 30.08 in 10.0 mi Calm Calm - N/A   Scattered Clouds
11:55 PM 50.9 °F 49.1 °F 94% 30.08 in 10.0 mi NNW 4.6 mph - N/A   Scattered Clouds